CZ-6A DEB

Satellite information

Favourite Embed

Satellite Type and Status

DEBRISIN ORBIT

Key statistics

Satellite CZ-6A DEB at a glance.

Uptime

1032

Days in orbit

Revolutions

≈ 14.1

Per day

Orbit

SSO

Sun Synchronous Orbit

Inclination

98.8

Latest

Satellite identification and parameters

Extended collection of information and parameters for CZ-6A DEB.

Object identification

Identified? True

Debris? True

Object name: CZ-6A DEB

International designator: 2022-151LS

Object number (NORAD): 54566

Object ID (CCSDS): 54566

Country: PEOPLES REPUBLIC OF CHINA (PRC)

Current information (Y/N): Y

RCS size: LARGE

Orbital parameters

Period: 102.296 minutes

Inclination: 98.8375 deg

SMA: 7245.45 km

Apoapsis: 908.387 km

Periapsis: 826.244 km

RAAN: 245.6378 deg

Eccentricy: 0.00566859

Argument of periapsis: 70.7941 deg

Mean anomaly: 289.9351 deg

Mean motion: 14.07682464 rev/day

Mean motion (dot): 0.00000361 rev/day2

B* drag term: 0.00023570091 1/REarth

Two-line elements (TLE)

Creation date: Sept. 7, 2025, 3:09 a.m.

Reference frame: TEME

Reference center: EARTH

Epoch: Sept. 6, 2025, 9:26 p.m. UTC

TLE line 0: 0 CZ-6A DEB

TLE line 1: 1 54566U 22151LS 25249.89309717 .00000361 00000-0 23570-3 0 9993

TLE line 2: 2 54566 98.8375 245.6378 0056686 70.7941 289.9351 14.07682464144572

Live tracking on map

Real-time ground track for satellite CZ-6A DEB.

In-orbit conjunctions

A list of the most updated potential collisions computed for object CZ-6A DEB.

Target Orbit TCA Probability of collision Miss distance Type
THOR ABLESTAR DEB LEO 2025-08-28 16:15:20 0.0001962347 185.0 (m) DEBRIS
THORAD AGENA D DEB SSO 2024-08-22 09:24:28 0.0001594947 90.0 (m) DEBRIS

Associated space launch

Chinese satellite reported for atmospheric/ocean/environmental/spatial parameter research purposes, details TBD.

CZ-6A DEB was lifted into orbit during the mission ‘Long March 6A | Yunhai 3’, on board a Long March 6A space rocket.

The launch took place on Nov. 11, 2022, 10:52 p.m. from Launch Complex 9A.

For more information about the launch, click the button.

Launch to space Long March 6A | Yunhai 3
Long March 6A | Yunhai 3

Agency: N/A

Status: Launch Successful

Launch date: Nov. 11, 2022, 10:52 p.m. UTC

Rocket: Long March 6A

Launch pad: Launch Complex 9A

Location: Taiyuan Satellite Launch Center, People's Republic of China

...

Latest news about this satellite

There are no fresh news available about this satellite. Check back as we update our databases every day.


Newsletter sign-up

Weekly statistics, charts and insights to help you stay on top of the space industry.